Location: Bruch
(44.2051°N, 0.4120°E)
Time: 04:34:13
(UTC+00:00)

Aureole 2 Rocket - Pass Details

Date: 29 November 2020
Orbit: 289 x 388 km, 73.9° (Epoch: 24 January)

Event Time Altitude Azimuth Distance (km) Brightness Sun altitude
Rises 05:16:46 0° 175° (S) 1,959 5.9 -20.1°
Reaches altitude 10° 05:18:52 10° 158° (SSE) 1,140 4.9 -19.7°
Maximum altitude 05:20:51 22° 104° (ESE) 710 4.3 -19.3°
Drops below altitude 10° 05:22:56 10° 49° (NE) 1,174 5.0 -19.0°
Sets 05:24:59 0° 34° (NE) 1,981 6.0 -18.6°
